Location: Melbourne
(37.8170°S, 144.9670°E)
Time: 14:13:47
(UTC+10:00)

ISS - Visible Passes

Search period start: 25 April 2015 00:00
Search period end: 05 May 2015 00:00
Orbit: 395 x 402 km, 51.6° (Epoch: 24 April)

Date Brightness Start Highest point End Pass type
(mag) Time Alt. Az. Time Alt. Az. Time Alt. Az.
25 Apr -0.8 05:18:20 13° S 05:19:28 14° SSE 05:21:24 10° ESE visible
26 Apr -2.2 05:59:13 11° SW 06:02:12 39° SE 06:05:18 10° ENE visible
27 Apr -1.4 05:07:36 22° SSE 05:07:58 23° SSE 05:10:40 10° E visible
28 Apr -3.4 05:48:34 24° SW 05:50:23 89° WNW 05:53:39 10° NE visible
29 Apr -1.7 04:57:03 34° ESE 04:57:03 34° ESE 04:59:20 10° ENE visible
29 Apr -1.4 06:30:06 10° W 06:32:20 17° NW 06:34:28 10° N visible
30 Apr -2.6 05:38:11 35° NW 05:38:17 35° NW 05:41:18 10° NNE visible
01 May -0.5 04:46:47 15° NE 04:46:47 15° NE 04:47:24 10° NE visible
